{"data":{"norad_id":53863,"intl_designator":"2022-114AX","name":"STARLINK-4788","alt_names":[],"object_type":"PAYLOAD","status":"ACTIVE","operator":null,"country":"US","launch_date":"2022-09-19","launch_site_code":"AFETR","launch_vehicle":null,"mission":null,"orbit_class":"UNKNOWN","rcs_meters":null,"size_class":null,"mass_kg":null,"dimensions":null,"purposes":["comms"],"wikipedia_slug":null,"has_3d_model":false,"image_url":null,"decayed_at":null,"tle_current":{"epoch":"2026-05-24T21:08:48.784416Z","epoch_age_seconds":92226,"freshness":"FRESH","line1":"1 53863U 22114AX  26144.88112019  .00002584  00000+0  18041-3 0  9997","line2":"2 53863  53.2135 302.1218 0001196  77.8254 282.2872 15.08830842204616","mean_motion":15.08830842,"eccentricity":0.0001196,"inclination_deg":53.2135,"raan_deg":302.1218,"arg_perigee_deg":77.8254,"mean_anomaly_deg":282.2872,"bstar":0.00018041,"rev_number":20461,"period_min":95.438133945568,"perigee_km":538.94399960555,"apogee_km":540.5987632904,"semimajor_km":6917.908381448,"source":"CELESTRAK","updated_at":"2026-05-25T13:38:17.579206Z"}}}